Regional Weather Roundup
Issued by NWS

Home | Current Version | Previous Version | Graphics & Text | Print | Product List | Glossary On
Versions: 1 2 3 4 5 6 7 8 9 10 11 12 13 14 15 16 17 18 19 20 21 22 23 24 25 26 27 28 29 30 31 32 33 34 35 36 37 38 39 40 41 42 43 44 45 46 47 48 49 50
000
ASUS43 KDMX 051101
RWRIA

WEATHER ROUNDUP FOR IOWA
NATIONAL WEATHER SERVICE DES MOINES IA
500 AM CST MON DEC 05 2016

NOTE: "FAIR" INDICATES FEW OR NO CLOUDS BELOW 12,000 FEET WITH NO
SIGNIFICANT WEATHER AND/OR OBSTRUCTIONS TO VISIBILITY.

* - THESE STATIONS ARE NOT NWS STATIONS...THUS NOT UNDER NWS
QUALITY CONTROL.  THEY ALSO DO NOT REPORT WEATHER SUCH
AS PRECIPITATION OR FOG.

IAZ001>003-012>014-020>022-031>034-043>046-051200-
   NORTHWEST IOWA

CITY           SKY/WX    TMP DP  RH WIND       PRES   REMARKS
CARROLL *      CLEAR     34  32  93 S13       29.80F WCI  25
CHEROKEE *     MOCLDY    33  32  96 S6        29.74F WCI  27
DENISON *      CLEAR     34  30  86 S13G20    29.77F WCI  25
LE MARS *      CLOUDY    34  30  86 S15G21    29.71F WCI  24
ORANGE CITY *  PTCLDY    34  30  86 SE7       29.69F WCI  28
SHELDON *      CLOUDY    32  32 100 SE15      29.70F WCI  22
SIOUX CITY     MOCLDY    34  31  88 SE8       29.72F WCI  27
SPENCER        CLOUDY    33  31  92 S13       29.75F WCI  24
STORM LAKE *   MOCLDY    32  30  93 S13       29.75F WCI  22
$$

IAZ055>058-069>071-079>083-090>094-051200-
   SOUTHWEST IOWA

CITY           SKY/WX    TMP DP  RH WIND       PRES   REMARKS
ATLANTIC *     PTCLDY    34  32  93 S6        29.83F WCI  29
AUDUBON *      CLOUDY    32  28  86 S6        29.82F WCI  26
CLARINDA *       N/A     30  30 100 S5        29.88F WCI  25
COUNCIL BLFS * CLOUDY    34  32  93 SE8       29.80F WCI  27
CRESTON *      PTCLDY    30  32 100 S9        29.88F WCI  22
HARLAN  *      CLEAR     32  32 100 S7        29.84F WCI  26
LAMONI         FOG       30  30 100 SE6       29.89F VSB 1/4 WCI  24
RED OAK *      PTCLDY    32  32 100 S6        29.84F WCI  26
SHENANDOAH *   CLEAR     34  32  93 CALM      29.85F
$$

IAZ047>049-059>061-072>074-084-051200-
   CENTRAL IOWA

CITY           SKY/WX    TMP DP  RH WIND       PRES   REMARKS
AMES           PTCLDY    28  28 100 SE7       29.88R FOG     WCI  21
ANKENY *       CLOUDY    30  30 100 SE6       29.90S FOG     WCI  24
BOONE *        CLEAR     28  28 100 S7        29.84F WCI  21
CHARITON *     FOG       32  32 100 S9        29.90F VSB 1/4 WCI  24
DES MOINES     MOCLDY    32  31  96 S9        29.89S FOG     WCI  24
GRINNELL*      FOG       32  32 100 S9        29.91F VSB 1/4 WCI  24
KNOXVILLE *    FOG       32  32 100 S10       29.89F VSB 1/4 WCI  24
MARSHALLTOWN   FOG       30  30 100 S8        29.89F VSB 1/4 WCI  22
NEWTON *       FOG       32  32 100 S8        29.91R VSB<1/4 WCI  25
PELLA *        FOG       33  32  97 S9        29.92F VSB 1/4 WCI  25
PERRY *          N/A     32  32 100 SE10      29.85F WCI  24
$$

IAZ004>006-015-016-023>025-035-036-051200-
   NORTH CENTRAL IOWA

CITY           SKY/WX    TMP DP  RH WIND       PRES   REMARKS
ALGONA *       CLOUDY    34  32  93 S10       29.78F WCI  26
CLARION *      MOCLDY    32  32 100 S14       29.82F WCI  22
ESTHERVILLE    CLOUDY    31  31 100 S12       29.75F WCI  22
FORT DODGE *   CLOUDY    34  28  80 S6        29.82F WCI  29
MASON CITY     CLOUDY    30  28  92 S8        29.84F WCI  22
WEBSTER CITY * CLOUDY    30  30 100 SE10      29.81F WCI  21
IOWA FALLS *   FOG       29  28  96 SE8       29.87S VSB 1/4 WCI  21
$$

IAZ007>011-017>019-026>030-037>042-050>054-066-051200-
   NORTHEAST IOWA

CITY           SKY/WX    TMP DP  RH WIND       PRES   REMARKS
CEDAR RAPIDS   FOG       32  32 100 S14       29.94F VSB 1/4 WCI  22
CHARLES CITY * CLOUDY    30  30 100 S12       29.86F FOG     WCI  21
DECORAH *      FOG       30  30 100 S8        29.87S VSB<1/4 WCI  23
DUBUQUE        LGT SNOW  32  32 100 SW12      29.93F FOG     WCI  23
MONTICELLO *   CLOUDY    34  32  93 S7        29.94F FOG     WCI  28
OELWEIN *      FOG       30  30 100 S10       29.90S VSB<1/4 WCI  21
WATERLOO       FOG       31  31 100 S7        29.89F VSB 1/2 WCI  24
$$

IAZ064-065-067-068-078-051200-
   EAST CENTRAL IOWA

CITY           SKY/WX    TMP DP  RH WIND       PRES   REMARKS
DAVENPORT      CLOUDY    32  31  96 SW9       29.98S FOG     WCI  24
IOWA CITY      FOG       33  32  96 S10       29.99S VSB 1   WCI  25
MUSCATINE *    CLOUDY    34  32  93 S12       30.00F FOG     WCI  25
QUAD CITIES    CLOUDY    33  30  88 S8        29.99S FOG     WCI  26
$$

IAZ062-063-075>077-085>089-095>099-051200-
   SOUTHEAST IOWA

CITY           SKY/WX    TMP DP  RH WIND       PRES   REMARKS
BURLINGTON     FOG       32  32 100 SW3       29.98S VSB 1/2
FAIRFIELD *    FOG       34  32  93 S5        29.95F VSB 1/4 WCI  30
FORT MADISON * FOG       32  32 100 CALM      29.99S VSB 1/4
KEOKUK *       FOG       34  34 100 CALM      29.98S VSB 1/4
OSKALOOSA *    FOG       32  32  99 S8        29.94F VSB 1/4 WCI  25
CENTERVILLE *  FOG       32  32 100 CALM      29.93F VSB 1/2
OTTUMWA        FOG       33  32  96 S5        29.94F VSB 1/4 WCI  29
WASHINGTON *   FOG       32  32 100 S8        29.98F VSB 1/4 WCI  25
$$

ABBREVIATIONS USED IN REMARKS
   TC - TEMPERATURES IN CELSIUS
  WCI - WIND CHILL INDEX
   HX - HEAT INDEX
  VSB - VISIBILITY
$$




USA.gov is the U.S. government's official web portal to all federal, state and local government web resources and services.